Hourly Data Report for October 26, 2014

All times are specified in Local Standard Time (LST). Add 1 hour to adjust for Daylight Saving Time where and when it is observed.

MONCTON INTL A
NEW BRUNSWICK

46°06'44.000" N
64°40'43.000" W
70.70 m
8103201
71705
YQM

Download Data

Hourly Data (October 2014)
Hourly Data Report for October 26, 2014
Temp Definition
°C
Dew Point Temp Definition
°C
Rel Hum Definition
%
Wind Dir Definition
10's deg

Wind Spd Definition
km/h
Visibility Definition
km
Stn Press Definition
kPa
Hmdx Definition


Wind Chill Definition


Weather Definition


TIME
00:00 Legend Double Dagger 4.8 3.9 94 27 9 19.3 99.01     LegendNANA
01:00 Legend Double Dagger 4.4 3.7 95 25 11 4.8 99.02     Fog
02:00 Legend Double Dagger 4.0 3.4 96 23 8 2.4 98.99     Drizzle,Fog
03:00 Legend Double Dagger 4.0 3.4 96 25 14 1.6 99.01     Drizzle,Fog
04:00 Legend Double Dagger 3.9 3.5 97 23 8 1.0 98.99     Fog
05:00 Legend Double Dagger 3.4 3.0 97 18 4 0.4 98.95     Fog
06:00 Legend Double Dagger 2.3 1.9 97 10 5 0.8 98.89     Fog
07:00 Legend Double Dagger 2.7 2.3 97 11 12 4.8 98.84     Fog
08:00 Legend Double Dagger 3.5 3.1 97 13 8 0.8 98.87     Fog
09:00 Legend Double Dagger 5.3 4.9 97 9 10 19.3 98.82     LegendNANA
10:00 Legend Double Dagger 6.0 5.6 97 9 11 19.3 98.73     LegendNANA
11:00 Legend Double Dagger 7.7 7.1 96 11 12 19.3 98.72     Mostly Cloudy
12:00 Legend Double Dagger 8.7 7.5 92 13 14 19.3 98.63     LegendNANA
13:00 Legend Double Dagger 9.1 8.0 93 12 14 12.9 98.55     Rain
14:00 Legend Double Dagger 9.0 8.3 95 11 11 12.9 98.51     Rain
15:00 Legend Double Dagger 8.8 8.1 95 11 14 9.7 98.52     Rain,Fog
16:00 Legend Double Dagger 8.6 8.0 96 9 13 12.9 98.47     Rain
17:00 Legend Double Dagger 8.3 7.7 96 8 8 6.4 98.51     Rain,Fog
18:00 Legend Double Dagger 8.1 7.7 97 36 8 24.1 98.52     Rain
19:00 Legend Double Dagger 8.0 7.6 97 3 11 9.7 98.48     Rain,Fog
20:00 Legend Double Dagger 8.0 7.6 97 29 10 1.0 98.49     Fog
21:00 Legend Double Dagger 7.7 7.3 97 29 9 6.4 98.52     Fog
22:00 Legend Double Dagger 7.9 7.5 97 30 17 4.0 98.48     Rain Showers,Fog
23:00 Legend Double Dagger 7.1 6.7 97 29 14 24.1 98.49     Cloudy

Notes on Data Quality.

Legend

  • E = Estimated
  • M = Missing
  • NA = Not Available
  • ‡ = Partner data that is not subject to review by the National Climate Archives
Date modified: